Showing default

GEESAT 2-06, 58910

Orbit data source: Space-Track

GEESAT 2-06, 58910 is a payload satellite owned by GeeSpace (CN) in LEO that was launched on Fri, 02 Feb 2024 UTC via a CHANG ZHENG 2C launch vehicle from the Xichang Space Center, China (XSC). Payload-class satellites include a variety of spacecraft equipped with specific instruments for various scientific and technological missions. These include communications satellites like Starlink; space stations such as the ISS; scientific satellites like the Hubble; Earth observation satellites from companies like Planet Labs, Umbra, and HawkEye 360; GPS; miniature CubeSats for education and research; and military/defense satellites.

Loading next visibility...
Identifier
58910, 2024-023F
Orbit
LEO
Last TLE update
7 hours ago
Origin
Manufacturer
Taizhou Xingkong
Mission
Operational Commercial Navigation
Bus & Motor
GEESAT1, Unknown motor
Mass
130 kg wet, 130 kg dry
Launch date (UTC)
2024-02-02 (1 year ago)
Launch vehicle
CHANG ZHENG 2C
Launch site
Xichang Space Center, China (XSC)
Object type
Payload
Rocket body
Debris
Shape & HBR
Box + 2 Pan, 2 m
Radar Cross Section
0.833 m², Medium (>0.1 m² and < 1m²)

Expand to show TLE details & history

TLE from 7 hours ago
0 GEESAT 2-06
1 58910U 24023F   25184.20494041  .00002192  00000-0  19785-3 0  9995
2 58910  49.9873 163.9863 0006442 116.3813 243.7794 14.99431426 77193
Epoch: 2025-07-03T04:55Z
TLE epoch observation values (Epoch: 2025-07-03T04:55:06.851Z)
Latitude
0.00001°
Longitude
168.73272°
Altitude
571.178 km
Speed
7.576 km/s
True Right ascension
10h 55m 56s
True Declination
0° 00' 00"
Sunlit
Object was in daylight at epoch
Visualization orbit readout
Latitude
24.4298°
Longitude
-34.95078°
Altitude
565.335 km
Speed
7.584 km/s
Apparent Right ascension
17h 58m 41s
Apparent Declination
-18° 06' 43"
Sunlit
Object is in full shadow
Visualization observer readout
Local Sidereal Time
23:44:48
Azimuth
253.815° W
Elevation
-8.937°
Doppler factor
1
Orbital elements
Apogee altitude
573.893 km
Perigee altitude
564.942 km
Semi-major axis
6,947.555 km
Eccentricity
0.00064
Inclination
49.9873°
RAAN
163.9863°
Arg. of periapsis
116.3813°
True anomaly
Unknown
Mean anomaly
243.7794°
Eccentric anomaly
Unknown
Mean motion
3.74796 °/min
Orbital period
96.05 mins
BSTAR
0.00019785
Loading maneuver chart data...
Loading SW <> Apogee altitude chart data...
Loading historical data...
Loading historical data...
Loading historical data...
Loading historical data...
Loading historical data...
Loading historical data...
Loading historical data...

GEESAT 2-06 Visibility forecast

Observer location: undefined°, undefined°

Span
Click to sort rows by Start time (UTC) header in descending order
Start Az.
Max El. time (UTC)
Max El. Az.
Max El.
End time (UTC)
End Az.
4 mins2025-07-04 00:16:13.486Z165.605° S2025-07-04 00:18:13.486Z133.596° SE16.842°2025-07-04 00:20:13.486Z100.193° ESE
7 mins2025-07-04 01:55:13.486Z241.731° WSW2025-07-04 01:58:13.486Z328.169° NNW44.33°2025-07-04 02:02:13.486Z53.605° ENE
5 mins2025-07-04 03:37:13.486Z308.953° NW2025-07-04 03:39:13.486Z351.463° N22.983°2025-07-04 03:42:13.486Z40.351° NE
5 mins2025-07-04 05:18:13.486Z329.036° NNW2025-07-04 05:20:13.486Z5.259° NNE20.074°2025-07-04 05:23:13.486Z54.671° ENE
6 mins2025-07-04 06:59:13.486Z326.116° NNW2025-07-04 07:01:13.486Z21.668° NNE35.636°2025-07-04 07:05:13.486Z100.428° ESE
6 mins2025-07-04 08:39:13.486Z275.624° WNW2025-07-04 08:41:13.486Z233.056° WSW28.677°2025-07-04 08:45:13.486Z159.458° S
|